Regional Weather Roundup
Issued by NWS Cleveland, OH

Home | Current Version | Previous Version | Graphics & Text | Print | Product List | Glossary On
Versions: 1 2 3 4 5 6 7 8 9 10 11 12 13 14 15 16 17 18 19 20 21 22 23 24 25 26 27 28 29 30 31 32 33 34 35 36 37 38 39 40 41 42 43 44 45 46 47 48 49 50
000
ASUS41 KCLE 312110
RWRCLE
OHIO REGIONAL WEATHER ROUNDUP
NATIONAL WEATHER SERVICE CLEVELAND, OH
500 PM EDT FRI JUL 31 2015

NOTE: "FAIR" INDICATES FEW OR NO CLOUDS BELOW 12,000 FEET WITH NO
SIGNIFICANT WEATHER AND/OR OBSTRUCTIONS TO VISIBILITY.

OHZ001>008-015>018-024>027-034-035-043-044-312200-
   NORTHWEST OHIO

CITY           SKY/WX    TMP DP  RH WIND       PRES   REMARKS
DEFIANCE       MOSUNNY   87  61  41 W9G17     29.90S
FINDLAY        MOSUNNY   87  60  40 W15       29.90F
TOLEDO EXPRESS MOSUNNY   86  55  34 W16G23    29.87F
TOLEDO EXEC    MOSUNNY   87  56  34 W20G26    29.87F
LIMA           CLOUDY    81  57  43 W9        29.93F
$$

OHZ009>014-019>023-028>033-038-089-312200-
   NORTHEAST OHIO

CITY           SKY/WX    TMP DP  RH WIND       PRES   REMARKS
CLE-HOPKINS    MOSUNNY   85  56  37 W12       29.90F
CLE-LAKEFRONT  MOSUNNY   84  63  49 W9        29.86F
CUY CO. ARPT   MOSUNNY   86  55  35 W12G21    29.90F
LORAIN-ELYRIA  MOSUNNY   82  57  42 W7        29.90F
ASHTABULA      SUNNY     84  54  35 W16       29.89F
AKRON-CANTON   MOSUNNY   86  54  33 W13       29.92F
WOOSTER        MOSUNNY   83  58  42 W8        29.93F
MANSFIELD      PTSUNNY   83  57  41 W15       29.94F
YOUNGSTOWN     MOSUNNY   83  55  38 W12       29.90F
$$

OHZ042-051>053-060>062-070>072-077>081-312200-
  SOUTHWEST OHIO

CITY           SKY/WX    TMP DP  RH WIND       PRES   REMARKS
CINC-COVINGTON MOSUNNY   87  58  37 W6        30.00F
CINC-LUNKEN    MOSUNNY   86  56  35 NW9G21    29.98F
HAMILTON       MOSUNNY   87  57  35 VRB6      29.98F
DAYTON         MOSUNNY   85  60  42 W13       29.97F
WRIGHT-PAT AFB MOSUNNY   86  58  38 W10       29.96F
DAYTON GENERAL MOSUNNY   86  56  35 W9        29.97F
WILMINGTON     MOSUNNY   84  57  39 W10       29.98F
$$

OHZ036-037-039>041-045>050-054>059-063>069-073>076-082>088-312200-
  CENTRAL AND SOUTHEAST OHIO

CITY           SKY/WX    TMP DP  RH WIND       PRES   REMARKS
COLUMBUS       MOSUNNY   86  57  37 W12       29.94F
OSU AIRPORT    MOSUNNY   84  60  44 W10       29.95F
BOLTON FIELD   MOSUNNY   84  63  48 W8        29.97F
RICKENBACK AFB SUNNY     85  59  42 W9        29.95F
NEWARK         MOSUNNY   87  55  33 NW10      29.94F
MARION         MOSUNNY   86  57  37 W12       29.93F
LANCASTER      SUNNY     84  61  45 W12       29.96F
ZANESVILLE     MOSUNNY   86  56  35 NW8G18    29.94S
NEW PHILLY     MOSUNNY   84  60  44 W9        29.93F
$$



USA.gov is the U.S. government's official web portal to all federal, state and local government web resources and services.